Content
SEND FEEDBACK

Daily
Averages
Monthly
Summary
United States of America

ASHEVILLE, NORTH CAROLINA


Home > North America > United States > North Carolina
Elevation: 2240 feet     Latitude: 35 36N     Longitude: 082 32W

WEATHER
 
SELECT A DAY
Number of Records: 229,488;   Date Range: 1/1/95 - 10/21/14
 
SHARE

PRINT THIS DATA

[ ← Previous Day ]
WEATHER ALMANAC - FEBRUARY 4, 2013
[ Next Day → ]
[ °C ]   °F
Weather ElementAverageHighLow
Temperature37.4 °F51.1 °F (1:54 pm)26.1 °F (3:54 am)
Dewpoint20.1 °F24.1 °F (10:54 pm)18 °F (1:54 am)
Humidity52.3 %75 % (5:54 am)29 % (1:54 pm)
Barometer30.03 in30.12 in (8:54 am)29.98 in (2:54 pm)
Wind Speed7.1 mph17.3 mph (1:54 am)
Wind Gust26.5 mph (1:54 am)
Weather ElementAverage
Visibility10 mi
Wind DirectionSSE (174.1 °)

Weather ElementTotal
Precipitation---
Heating Degree Days26.4 (Base 65)
Averaged from 22 records on February 4, 2013
WEATHER CONDITIONS BREAKOUT
WIND DIRECTION BREAKOUT
WEATHER BY HOUR - FEBRUARY 4, 2013
[ °C ]   °F
Local TimeTemperatureDewpointHumidityBarometerVisibilityWind DirectionWind SpeedGust SpeedPrecipitationEventsConditions
1:54 AM27.0 °F18.0 °F69 %30.03 in10.0 miNorth (350°)17.3 mph26.5 mphClear
2:54 AM27.0 °F18.0 °F69 %30.02 in10.0 miNorth (360°)8.1 mph19.6 mphClear
3:54 AM26.1 °F18.0 °F71 %30.04 in10.0 miNNW (340°)11.5 mphClear
5:54 AM26.1 °F19.0 °F75 %30.04 in10.0 miNorth (350°)11.5 mphClear
6:54 AM27.0 °F18.0 °F69 %30.07 in10.0 miNNW (340°)8.1 mphClear
7:54 AM28.0 °F18.0 °F66 %30.10 in10.0 miCalmClear
8:54 AM28.9 °F19.0 °F67 %30.12 in10.0 miCalmClear
9:54 AM30.9 °F19.9 °F64 %30.12 in10.0 miCalmScattered Clouds
10:54 AM35.1 °F19.0 °F52 %30.12 in10.0 miCalmClear
11:54 AM37.0 °F19.9 °F50 %30.09 in10.0 miVariable3.5 mphClear
12:54 PM45.0 °F21.0 °F39 %30.04 in10.0 miSouth (170°)4.6 mphClear
1:54 PM51.1 °F19.9 °F29 %29.99 in10.0 miSouth (190°)10.4 mph21.9 mphClear
2:54 PM51.1 °F19.9 °F29 %29.98 in10.0 miSSW (200°)8.1 mph17.3 mphPartly Cloudy
3:54 PM50.0 °F19.0 °F29 %29.98 in10.0 miSSW (200°)11.5 mphPartly Cloudy
4:54 PM46.9 °F19.0 °F33 %29.98 in10.0 miSouth (170°)13.8 mphScattered Clouds
5:54 PM45.0 °F21.0 °F39 %29.98 in10.0 miSouth (180°)9.2 mphMostly Cloudy
6:54 PM42.1 °F21.0 °F43 %30.00 in10.0 miSSE (160°)8.1 mphPartly Cloudy
7:54 PM41.0 °F21.9 °F47 %29.99 in10.0 miESE (120°)3.5 mphOvercast
8:54 PM39.9 °F21.9 °F49 %30.00 in10.0 miSouth (170°)6.9 mphOvercast
9:54 PM39.9 °F21.9 °F49 %30.01 in10.0 miSouth (190°)6.9 mphOvercast
10:54 PM39.0 °F24.1 °F55 %29.99 in10.0 miSSE (160°)6.9 mphOvercast
11:54 PM37.9 °F24.1 °F57 %29.98 in10.0 miSouth (180°)6.9 mphOvercast
Hourly data recorded from KAVL, located miles away from Asheville, North Carolina







STORIES FROM OUR PARTNERS